TimeCST,TemperatureF,Dew PointF,Humidity,Sea Level PressureIn,VisibilityMPH,Wind Direction,Wind SpeedMPH,Gust SpeedMPH,PrecipitationIn,Events,Conditions,WindDirDegrees,DateUTC
12:01 AM,33.8,17.6,52,30.24,10.0,East,5.8,-,N/A,,Overcast,80,2013-01-25 06:01:00
12:53 AM,33.1,18.0,54,30.23,10.0,ENE,6.9,-,0.00,,Overcast,70,2013-01-25 06:53:00
1:53 AM,33.1,18.0,54,30.20,10.0,ENE,5.8,-,0.00,,Overcast,60,2013-01-25 07:53:00
2:08 AM,33.8,19.4,56,30.18,10.0,ENE,4.6,-,N/A,,Overcast,60,2013-01-25 08:08:00
2:24 AM,33.8,19.4,56,30.17,10.0,ENE,4.6,-,N/A,,Overcast,60,2013-01-25 08:24:00
2:53 AM,32.0,19.9,61,30.19,10.0,NE,4.6,-,0.00,,Overcast,40,2013-01-25 08:53:00
3:53 AM,32.0,21.0,64,30.17,10.0,North,6.9,-,N/A,,Overcast,360,2013-01-25 09:53:00
4:53 AM,32.0,19.9,61,30.15,10.0,Calm,Calm,-,0.00,,Overcast,0,2013-01-25 10:53:00
6:53 AM,32.0,21.9,66,30.15,10.0,North,4.6,-,N/A,,Overcast,360,2013-01-25 12:53:00
7:53 AM,32.0,21.0,64,30.16,10.0,NNW,4.6,-,N/A,,Overcast,330,2013-01-25 13:53:00
8:28 AM,33.8,19.4,56,30.15,10.0,Calm,Calm,-,N/A,,Scattered Clouds,0,2013-01-25 14:28:00
8:53 AM,33.1,21.0,61,30.18,10.0,NNW,3.5,-,N/A,,Clear,330,2013-01-25 14:53:00
9:53 AM,35.1,21.0,57,30.20,10.0,Variable,3.5,-,N/A,,Mostly Cloudy,0,2013-01-25 15:53:00
10:50 AM,37.4,23.0,56,30.18,10.0,WNW,5.8,-,N/A,,Overcast,300,2013-01-25 16:50:00
10:53 AM,39.0,24.1,55,30.20,10.0,NW,8.1,-,N/A,,Overcast,310,2013-01-25 16:53:00
11:53 AM,41.0,25.0,53,30.18,10.0,North,9.2,-,N/A,,Overcast,360,2013-01-25 17:53:00
12:53 PM,44.1,27.0,51,30.16,10.0,Calm,Calm,-,N/A,,Mostly Cloudy,0,2013-01-25 18:53:00
1:03 PM,44.6,26.6,49,30.14,10.0,North,3.5,-,N/A,,Partly Cloudy,10,2013-01-25 19:03:00
1:53 PM,46.0,27.0,47,30.16,10.0,Variable,3.5,-,N/A,,Clear,0,2013-01-25 19:53:00
2:53 PM,48.0,28.0,46,30.15,10.0,Variable,4.6,-,N/A,,Clear,0,2013-01-25 20:53:00
3:53 PM,48.9,28.9,46,30.16,10.0,SE,3.5,-,N/A,,Clear,130,2013-01-25 21:53:00
4:53 PM,43.0,30.0,60,30.17,10.0,South,5.8,-,N/A,,Clear,170,2013-01-25 22:53:00
5:53 PM,39.9,30.0,68,30.19,10.0,SSE,3.5,-,N/A,,Clear,150,2013-01-25 23:53:00
6:53 PM,37.0,30.9,79,30.20,10.0,Calm,Calm,-,N/A,,Clear,0,2013-01-26 00:53:00
7:53 PM,36.0,30.0,79,30.22,8.0,Calm,Calm,-,N/A,,Clear,0,2013-01-26 01:53:00
8:53 PM,33.1,28.0,82,30.22,8.0,Calm,Calm,-,N/A,,Clear,0,2013-01-26 02:53:00
9:53 PM,30.9,27.0,85,30.24,8.0,Calm,Calm,-,N/A,,Clear,0,2013-01-26 03:53:00
10:53 PM,30.0,27.0,88,30.25,7.0,Calm,Calm,-,N/A,,Clear,0,2013-01-26 04:53:00
11:53 PM,28.9,27.0,92,30.26,5.0,Calm,Calm,-,N/A,,Clear,0,2013-01-26 05:53:00